Tracking 17155 objects as of 28-July-2015
HD Live streaming from Space Station

COSMOS 2418 (GLONASS)

Track COSMOS 2418 (GLONASS) now!
COSMOS 2418 (GLONASS) is classified as:


NORAD ID: 28916
Int'l Code: 2005-050B
Perigee: 19,098.5 km
Apogee: 19,175.2 km
Inclination: 65.2 °
Period: 675.7 minutes
Semi major axis: 25507 km
RCS: 3.9905 m2 (large)
Launch date: December 25, 2005
Source: Commonwealth of Independent States (former USSR) (CIS)
SV:
Your satellite tracking list
Your tracking list is empty





NASA's NSSDC Master Catalog

Two Line Element Set (TLE):
1 28916U 05050B   15208.56410557 -.00000008  00000-0  00000+0 0  9993
2 28916 065.1998 089.2395 0015031 331.7928 237.2447 02.13104181 74613

Source of the keplerian elements: AFSPC

N2YO: 343